COSMOS 2251 DEB, 34852

Orbit data source: Space-Track

COSMOS 2251 DEB, 34852 is space debris in LEO originally from a launch on Wed, 16 Jun 1993 UTC launched from the Plesetsk Missile And Space Complex (PKMTR). The debris from Iridium 33, an American commercial communications satellite, has been tracked extensively since its accidental collision with the defunct Russian satellite Cosmos 2251 in 2009. This event, occurring at high speed in low Earth orbit (LEO), generated thousands of pieces of space debris, significantly increasing the risk of further collisions. The Iridium 33 debris cloud has impacted space traffic management and orbital debris mitigation strategies, making it a subject of ongoing study in space situational awareness.

Loading next visibility...
Identifier
34852, 1993-036ABW
Orbit
LEO
Country
Flag of CISCIS
Related business
Manufacturer
Unknown
Mission
Spacecraft
Bus & Motor
Unknown
Mass
Unknown
Launch date (UTC)
1993-06-16 (33 years ago)
Launch vehicle
Unknown
Launch site
Plesetsk Missile And Space Complex (PKMTR)
Object type
Payload
Rocket body
Debris
Shape & HBR
Unknown shape, 0.1 m
Radar Cross Section
Small (<0.1 m²)

Expand to show TLE details & history
Last TLE update: 2 days ago

TLE from 2 days ago
0 COSMOS 2251 DEB
1 34852U 93036ABW 26173.94418311  .00000146  00000-0  58078-4 0  9996
2 34852  74.0332 269.4389 0017176 327.5915  32.4182 14.37138468902958
Epoch: 2026-06-22T22:39Z
TLE epoch observation values (Epoch: 2026-06-22T22:39:37.420Z)
Latitude
-0.00003°
Longitude
18.41014°
Altitude
760.224 km
Speed
7.48 km/s
True Right ascension
17h 57m 45s
True Declination
0° 00' 00"
Sunlit
Object was in full shadow at epoch
Visualization orbit readout
Latitude
Unknown
Longitude
Unknown
Altitude
Unknown
Speed
Unknown
Apparent Right ascension
Unknown
Apparent Declination
Unknown
Sunlit
N/A
Visualization observer readout
Local Sidereal Time
22:40:18
Azimuth
Unknown
Elevation
Unknown
Doppler factor
Unknown
Orbital elements
Apogee altitude
777.862 km
Perigee altitude
753.322 km
Semi-major axis
7,143.729 km
Eccentricity
0.00172
Inclination
74.0332°
RAAN
269.4389°
Arg. of periapsis
327.5915°
True anomaly
32.52391°
Mean anomaly
32.4182°
Eccentric anomaly
32.47103°
Mean motion
3.59464 °/min
Orbital period
100.15 mins
BSTAR
0.000058078
Loading maneuver chart data...
Computing Atmospheric mass density...

Documentation

Showing up to 5 results
|